Location: Bathurst
(33.4193°S, 149.5775°E)
Time: 09:00:17
(UTC+10:00)

Vanguard 1 Rocket - Pass Details

Date: 19 June 2021
Orbit: 650 x 4226 km, 34.3° (Epoch: 02 August)

Event Time Altitude Azimuth Distance (km) Brightness Sun altitude
Rises 12:35:09 0° 264° (W) 6,528 11.8 32.6°
Reaches altitude 10° 12:40:18 10° 263° (W) 4,926 11.3 32.5°
Maximum altitude 12:52:31 89° 177° (S) 1,344 8.8 31.9°
Drops below altitude 10° 12:58:46 10° 81° (E) 2,642 9.8 31.6°
Sets 13:00:45 0° 81° (E) 3,382 10.3 31.5°
